Time,TemperatureF,DewpointF,PressureIn,WindDirection,WindDirectionDegrees,WindSpeedMPH,WindSpeedGustMPH,Humidity,HourlyPrecipIn,Conditions,Clouds,dailyrainin,SoftwareType,DateUTC
2013-01-01 00:01:00,2.5,1.0,30.57,SSW,211,0.0,0.0,91,0.00,,,0.00,weatherlink.com 1.10,2013-01-01 08:01:00,
2013-01-01 00:16:00,4.8,4.0,30.58,NNW,348,0.0,1.0,94,0.00,,,0.00,weatherlink.com 1.10,2013-01-01 08:16:00,
2013-01-01 00:31:00,7.1,6.0,30.59,WSW,250,0.0,0.0,94,0.00,,,0.00,weatherlink.com 1.10,2013-01-01 08:31:00,
2013-01-01 00:46:00,7.1,5.0,30.59,SW,222,0.0,1.0,92,0.00,,,0.00,weatherlink.com 1.10,2013-01-01 08:46:00,
2013-01-01 01:01:00,7.3,6.0,30.59,SW,222,0.0,0.0,92,0.00,,,0.00,weatherlink.com 1.10,2013-01-01 09:01:00,
2013-01-01 01:16:00,9.3,8.0,30.59,SE,141,0.0,0.0,94,0.00,,,0.00,weatherlink.com 1.10,2013-01-01 09:16:00,
2013-01-01 01:31:00,10.3,9.0,30.60,SSW,208,0.0,1.0,94,0.00,,,0.00,weatherlink.com 1.10,2013-01-01 09:31:00,
2013-01-01 01:46:00,11.0,9.0,30.60,SSE,155,0.0,1.0,93,0.00,,,0.00,weatherlink.com 1.10,2013-01-01 09:46:00,
2013-01-01 02:02:00,12.4,11.0,30.61,South,173,0.0,0.0,94,0.00,,,0.00,weatherlink.com 1.10,2013-01-01 10:02:00,
2013-01-01 02:17:00,13.6,13.0,30.62,SW,225,0.0,1.0,95,0.00,,,0.00,weatherlink.com 1.10,2013-01-01 10:17:00,
2013-01-01 02:32:00,13.8,13.0,30.62,SE,138,0.0,1.0,95,0.00,,,0.00,weatherlink.com 1.10,2013-01-01 10:32:00,
2013-01-01 02:47:00,15.3,14.0,30.62,SE,137,0.0,1.0,95,0.00,,,0.00,weatherlink.com 1.10,2013-01-01 10:47:00,
2013-01-01 03:02:00,14.8,13.0,30.63,SE,138,0.0,1.0,94,0.00,,,0.00,weatherlink.com 1.10,2013-01-01 11:02:00,
2013-01-01 03:17:00,17.0,16.0,30.60,ESE,117,4.0,4.0,94,0.00,,,0.00,weatherlink.com 1.10,2013-01-01 11:17:00,
2013-01-01 03:32:00,17.7,17.0,30.62,NNW,332,2.0,3.0,96,0.00,,,0.00,weatherlink.com 1.10,2013-01-01 11:32:00,
2013-01-01 03:47:00,18.6,18.0,30.62,WSW,242,1.0,3.0,96,0.00,,,0.00,weatherlink.com 1.10,2013-01-01 11:47:00,
2013-01-01 04:02:00,19.1,18.0,30.63,West,273,0.0,1.0,95,0.00,,,0.00,weatherlink.com 1.10,2013-01-01 12:02:00,
2013-01-01 04:17:00,19.4,18.0,30.63,WSW,245,1.0,2.0,95,0.00,,,0.00,weatherlink.com 1.10,2013-01-01 12:17:00,
2013-01-01 04:32:00,19.4,18.0,30.63,West,271,0.0,1.0,95,0.00,,,0.00,weatherlink.com 1.10,2013-01-01 12:32:00,
2013-01-01 04:47:00,19.4,18.0,30.64,WNW,286,1.0,1.0,95,0.00,,,0.00,weatherlink.com 1.10,2013-01-01 12:47:00,
2013-01-01 05:02:00,19.8,19.0,30.64,WNW,287,2.0,2.0,95,0.00,,,0.00,weatherlink.com 1.10,2013-01-01 13:02:00,
2013-01-01 05:17:00,19.7,18.0,30.66,NW,321,4.0,4.0,94,0.00,,,0.00,weatherlink.com 1.10,2013-01-01 13:17:00,
2013-01-01 05:32:00,19.9,19.0,30.66,NW,314,0.0,1.0,94,0.00,,,0.00,weatherlink.com 1.10,2013-01-01 13:32:00,
2013-01-01 05:47:00,19.8,18.0,30.66,NW,314,0.0,0.0,94,0.00,,,0.00,weatherlink.com 1.10,2013-01-01 13:47:00,
2013-01-01 06:02:00,19.7,18.0,30.66,WSW,248,0.0,1.0,94,0.00,,,0.00,weatherlink.com 1.10,2013-01-01 14:02:00,
2013-01-01 06:17:00,19.8,18.0,30.66,West,274,1.0,2.0,94,0.00,,,0.00,weatherlink.com 1.10,2013-01-01 14:17:00,
2013-01-01 06:32:00,20.1,18.0,30.67,WNW,284,3.0,3.0,93,0.00,,,0.00,weatherlink.com 1.10,2013-01-01 14:32:00,
2013-01-01 06:47:00,19.8,18.0,30.67,WNW,286,0.0,1.0,94,0.00,,,0.00,weatherlink.com 1.10,2013-01-01 14:47:00,
2013-01-01 07:02:00,19.7,18.0,30.67,WNW,287,0.0,1.0,94,0.00,,,0.00,weatherlink.com 1.10,2013-01-01 15:02:00,
2013-01-01 07:17:00,19.8,18.0,30.67,WNW,301,1.0,2.0,94,0.00,,,0.00,weatherlink.com 1.10,2013-01-01 15:17:00,
2013-01-01 07:32:00,19.6,18.0,30.66,West,263,0.0,1.0,94,0.00,,,0.00,weatherlink.com 1.10,2013-01-01 15:32:00,
2013-01-01 07:47:00,19.6,18.0,30.66,WNW,293,0.0,1.0,94,0.00,,,0.00,weatherlink.com 1.10,2013-01-01 15:47:00,
2013-01-01 08:02:00,19.7,18.0,30.67,NNE,15,0.0,1.0,94,0.00,,,0.00,weatherlink.com 1.10,2013-01-01 16:02:00,
2013-01-01 08:17:00,19.7,18.0,30.67,North,359,0.0,1.0,93,0.00,,,0.00,weatherlink.com 1.10,2013-01-01 16:17:00,
2013-01-01 08:32:00,19.9,19.0,30.69,North,359,0.0,0.0,94,0.00,,,0.00,weatherlink.com 1.10,2013-01-01 16:32:00,
2013-01-01 08:47:00,20.3,19.0,30.68,North,357,0.0,0.0,93,0.00,,,0.00,weatherlink.com 1.10,2013-01-01 16:47:00,
2013-01-01 09:02:00,20.5,19.0,30.68,SW,229,1.0,1.0,92,0.00,,,0.00,weatherlink.com 1.10,2013-01-01 17:02:00,
2013-01-01 09:17:00,20.5,19.0,30.68,West,275,1.0,1.0,93,0.00,,,0.00,weatherlink.com 1.10,2013-01-01 17:17:00,
2013-01-01 09:32:00,20.9,19.0,30.68,West,275,1.0,1.0,93,0.00,,,0.00,weatherlink.com 1.10,2013-01-01 17:32:00,
2013-01-01 09:47:00,20.9,19.0,30.69,WSW,255,1.0,2.0,92,0.00,,,0.00,weatherlink.com 1.10,2013-01-01 17:47:00,
2013-01-01 10:02:00,20.9,19.0,30.69,WNW,295,1.0,2.0,92,0.00,,,0.00,weatherlink.com 1.10,2013-01-01 18:02:00,
2013-01-01 10:17:00,21.3,19.0,30.70,WNW,295,0.0,1.0,92,0.00,,,0.00,weatherlink.com 1.10,2013-01-01 18:17:00,
2013-01-01 10:32:00,21.6,20.0,30.70,WNW,298,0.0,1.0,92,0.00,,,0.00,weatherlink.com 1.10,2013-01-01 18:32:00,
2013-01-01 10:47:00,21.4,19.0,30.70,West,274,1.0,3.0,91,0.00,,,0.00,weatherlink.com 1.10,2013-01-01 18:47:00,
2013-01-01 11:02:00,21.2,19.0,30.70,WNW,294,0.0,3.0,91,0.00,,,0.00,weatherlink.com 1.10,2013-01-01 19:02:00,
2013-01-01 11:17:00,21.2,19.0,30.70,NW,308,3.0,4.0,90,0.00,,,0.00,weatherlink.com 1.10,2013-01-01 19:17:00,
2013-01-01 11:33:00,21.1,19.0,30.70,NW,317,3.0,5.0,91,0.00,,,0.00,weatherlink.com 1.10,2013-01-01 19:33:00,
2013-01-01 11:48:00,21.1,19.0,30.70,NW,314,2.0,5.0,91,0.00,,,0.00,weatherlink.com 1.10,2013-01-01 19:48:00,
2013-01-01 12:03:00,21.1,19.0,30.70,NW,304,4.0,5.0,91,0.00,,,0.00,weatherlink.com 1.10,2013-01-01 20:03:00,
2013-01-01 12:18:00,21.0,19.0,30.70,WNW,288,3.0,5.0,91,0.00,,,0.00,weatherlink.com 1.10,2013-01-01 20:18:00,
2013-01-01 12:33:00,21.0,19.0,30.69,NW,307,2.0,6.0,90,0.00,,,0.00,weatherlink.com 1.10,2013-01-01 20:33:00,
2013-01-01 12:48:00,20.8,19.0,30.69,NNW,338,3.0,8.0,91,0.00,,,0.00,weatherlink.com 1.10,2013-01-01 20:48:00,
2013-01-01 13:03:00,20.8,18.0,30.70,North,356,4.0,6.0,90,0.00,,,0.00,weatherlink.com 1.10,2013-01-01 21:03:00,
2013-01-01 13:18:00,20.7,18.0,30.70,NNW,347,3.0,7.0,90,0.00,,,0.00,weatherlink.com 1.10,2013-01-01 21:18:00,
2013-01-01 13:33:00,20.6,18.0,30.71,NW,326,3.0,6.0,91,0.00,,,0.00,weatherlink.com 1.10,2013-01-01 21:33:00,
2013-01-01 13:48:00,20.7,19.0,30.71,NNW,335,3.0,3.0,91,0.00,,,0.00,weatherlink.com 1.10,2013-01-01 21:48:00,
2013-01-01 14:03:00,20.7,19.0,30.71,NNW,342,3.0,4.0,91,0.00,,,0.00,weatherlink.com 1.10,2013-01-01 22:03:00,
2013-01-01 14:18:00,20.7,19.0,30.71,NW,312,2.0,3.0,91,0.00,,,0.00,weatherlink.com 1.10,2013-01-01 22:18:00,
2013-01-01 14:33:00,20.9,19.0,30.71,NNW,342,1.0,1.0,90,0.00,,,0.00,weatherlink.com 1.10,2013-01-01 22:33:00,
2013-01-01 14:48:00,20.9,19.0,30.71,North,359,1.0,2.0,90,0.00,,,0.00,weatherlink.com 1.10,2013-01-01 22:48:00,
2013-01-01 15:03:00,20.9,19.0,30.71,North,359,0.0,1.0,90,0.00,,,0.00,weatherlink.com 1.10,2013-01-01 23:03:00,
2013-01-01 15:18:00,21.0,19.0,30.72,North,359,0.0,0.0,90,0.00,,,0.00,weatherlink.com 1.10,2013-01-01 23:18:00,
2013-01-01 15:33:00,20.8,18.0,30.71,North,359,0.0,0.0,90,0.00,,,0.00,weatherlink.com 1.10,2013-01-01 23:33:00,
2013-01-01 15:48:00,20.7,19.0,30.71,North,359,0.0,0.0,91,0.00,,,0.00,weatherlink.com 1.10,2013-01-01 23:48:00,
2013-01-01 16:03:00,20.5,18.0,30.70,North,360,0.0,1.0,91,0.00,,,0.00,weatherlink.com 1.10,2013-01-02 00:03:00,
2013-01-01 16:18:00,20.3,18.0,30.70,North,360,0.0,0.0,91,0.00,,,0.00,weatherlink.com 1.10,2013-01-02 00:18:00,
2013-01-01 16:33:00,20.1,18.0,30.70,East,101,0.0,2.0,92,0.00,,,0.00,weatherlink.com 1.10,2013-01-02 00:33:00,
2013-01-01 16:48:00,20.1,18.0,30.71,ESE,118,0.0,1.0,91,0.00,,,0.00,weatherlink.com 1.10,2013-01-02 00:48:00,
2013-01-01 17:03:00,19.9,18.0,30.72,ESE,118,0.0,0.0,92,0.00,,,0.00,weatherlink.com 1.10,2013-01-02 01:03:00,
2013-01-01 17:18:00,20.0,18.0,30.73,ESE,118,0.0,1.0,92,0.00,,,0.00,weatherlink.com 1.10,2013-01-02 01:18:00,
2013-01-01 17:33:00,20.0,18.0,30.73,ENE,60,1.0,1.0,92,0.00,,,0.00,weatherlink.com 1.10,2013-01-02 01:33:00,
2013-01-01 17:48:00,19.9,18.0,30.72,SE,138,0.0,2.0,92,0.00,,,0.00,weatherlink.com 1.10,2013-01-02 01:48:00,
2013-01-01 18:03:00,19.8,18.0,30.72,SE,138,0.0,0.0,92,0.00,,,0.00,weatherlink.com 1.10,2013-01-02 02:03:00,
2013-01-01 18:18:00,19.7,18.0,30.72,SE,139,0.0,0.0,93,0.00,,,0.00,weatherlink.com 1.10,2013-01-02 02:18:00,
2013-01-01 18:33:00,19.7,18.0,30.71,SE,138,0.0,1.0,93,0.00,,,0.00,weatherlink.com 1.10,2013-01-02 02:33:00,
2013-01-01 18:48:00,19.9,18.0,30.71,ENE,71,0.0,1.0,92,0.00,,,0.00,weatherlink.com 1.10,2013-01-02 02:48:00,
2013-01-01 19:03:00,19.9,18.0,30.71,East,86,0.0,0.0,92,0.00,,,0.00,weatherlink.com 1.10,2013-01-02 03:03:00,
2013-01-01 19:18:00,19.9,18.0,30.71,East,86,0.0,0.0,92,0.00,,,0.00,weatherlink.com 1.10,2013-01-02 03:18:00,
2013-01-01 19:33:00,19.8,18.0,30.71,East,91,0.0,1.0,92,0.00,,,0.00,weatherlink.com 1.10,2013-01-02 03:33:00,
2013-01-01 19:48:00,19.8,18.0,30.71,NNE,30,1.0,1.0,92,0.00,,,0.00,weatherlink.com 1.10,2013-01-02 03:48:00,
2013-01-01 20:03:00,19.9,18.0,30.71,NE,43,0.0,1.0,92,0.00,,,0.00,weatherlink.com 1.10,2013-01-02 04:03:00,
2013-01-01 20:18:00,20.0,18.0,30.72,NE,42,0.0,1.0,91,0.00,,,0.00,weatherlink.com 1.10,2013-01-02 04:18:00,
2013-01-01 20:33:00,20.0,18.0,30.72,NE,42,0.0,1.0,91,0.00,,,0.00,weatherlink.com 1.10,2013-01-02 04:33:00,
2013-01-01 20:48:00,19.8,18.0,30.71,NE,36,1.0,1.0,91,0.00,,,0.00,weatherlink.com 1.10,2013-01-02 04:48:00,
2013-01-01 21:03:00,20.1,18.0,30.70,NE,54,0.0,1.0,90,0.00,,,0.00,weatherlink.com 1.10,2013-01-02 05:03:00,
2013-01-01 21:18:00,20.3,18.0,30.71,NNE,13,1.0,4.0,90,0.00,,,0.00,weatherlink.com 1.10,2013-01-02 05:18:00,
2013-01-01 21:33:00,20.5,18.0,30.71,East,86,0.0,3.0,90,0.00,,,0.00,weatherlink.com 1.10,2013-01-02 05:33:00,
2013-01-01 21:48:00,20.7,18.0,30.71,NNE,19,3.0,5.0,89,0.00,,,0.00,weatherlink.com 1.10,2013-01-02 05:48:00,
2013-01-01 22:03:00,20.7,18.0,30.71,ENE,61,0.0,4.0,90,0.00,,,0.00,weatherlink.com 1.10,2013-01-02 06:03:00,
2013-01-01 22:18:00,20.8,18.0,30.71,ENE,58,0.0,1.0,89,0.00,,,0.00,weatherlink.com 1.10,2013-01-02 06:18:00,
2013-01-01 22:33:00,20.4,18.0,30.71,ENE,76,0.0,2.0,90,0.00,,,0.00,weatherlink.com 1.10,2013-01-02 06:33:00,
2013-01-01 22:48:00,20.2,18.0,30.71,NE,55,0.0,2.0,92,0.00,,,0.00,weatherlink.com 1.10,2013-01-02 06:48:00,
2013-01-01 23:03:00,20.2,18.0,30.70,ENE,77,0.0,2.0,92,0.00,,,0.00,weatherlink.com 1.10,2013-01-02 07:03:00,
2013-01-01 23:18:00,20.1,18.0,30.70,East,94,1.0,1.0,92,0.00,,,0.00,weatherlink.com 1.10,2013-01-02 07:18:00,
2013-01-01 23:33:00,19.9,18.0,30.69,East,87,0.0,1.0,93,0.00,,,0.00,weatherlink.com 1.10,2013-01-02 07:33:00,
2013-01-01 23:48:00,20.0,18.0,30.70,East,82,0.0,1.0,93,0.00,,,0.00,weatherlink.com 1.10,2013-01-02 07:48:00,